Location: ?????????
(38.5999°N, 22.7695°E)
Time: 09:47:44
(UTC+00:00)

Okean 1 Rocket - Pass Details

Date: 23 May 2024
Orbit: 602 x 631 km, 82.5° (Epoch: 23 June)

Event Time Altitude Azimuth Distance (km) Brightness Sun altitude
Rises 01:39:16 0° 356° (N) 2,867 7.1 -15.4°
Reaches altitude 10° 01:41:32 10° 1° (N) 1,957 6.2 -15.1°
Maximum altitude 01:45:48 59° 81° (E) 700 3.6 -14.5°
Drops below altitude 10° 01:50:02 10° 161° (SSE) 1,940 5.4 -13.9°
Sets 01:52:15 0° 165° (SSE) 2,839 6.2 -13.5°
